Weather History for Charlottesville, VA

Change the Weather History Date:

Thursday, April 18, 2013

  Actual Average Record
Temperature  
Mean Temperature 69 °F 56 °F  
Max Temperature 79 °F 68 °F 93 °F (1976)
Min Temperature 59 °F 44 °F 29 °F (1983)
Degree Days  
Heating Degree Days 0 10  
Month to date heating degree days 148 212  
Since 1 July heating degree days 3939 4216  
Cooling Degree Days 4 1  
Month to date cooling degree days 44 10  
Year to date cooling degree days 44 12  
Growing Degree Days 18 (Base 50)    
Moisture  
Dew Point 57 °F    
Average Humidity 70    
Maximum Humidity 93    
Minimum Humidity 46    
Precipitation  
Precipitation 0.09 in 0.11 in 0.47 in (2012)
Month to date precipitation 1.83 2.03  
Year to date precipitation 11.09 11.16  
Sea Level Pressure  
Sea Level Pressure 30.13 in    
Wind  
Wind Speed 7 mph (East)    
Max Wind Speed 20 mph    
Max Gust Speed 28 mph    
Visibility 6 miles    
Events Rain    
T = Trace of Precipitation, MM = Missing Value Source: NWS Daily Summary

Daily Weather History Graph

Daily Weather History Graph

Search for Another Location

Airport:

Trip Planner

Search our weather history database for the weather conditions in past years. The results will help you decide how hot, cold, wet, or windy it might be!

Date:

Astronomy

Apr. 18, 2013 Rise Set
Actual Time 6:33 AM EDT 7:53 PM EDT
Civil Twilight 6:06 AM EDT 8:20 PM EDT
Nautical Twilight 5:33 AM EDT 8:53 PM EDT
Astronomical Twilight 4:59 AM EDT 9:28 PM EDT
Moon 12:44 PM EDT (4/18) 2:05 AM EDT (4/18)
Length of Visible Light 14h 14m
Length of Day
13h 19m
First Quarter, 51% of the Moon is Illuminated
Apr 18
First Quarter
Apr 25
Full
May 2
Last Quarter
May 9
New
May 18
First Quarter

Hourly Weather History & Observations

Time (EDT) Temp. Dew Point Humidity Pressure Visibility Wind Dir Wind Speed Gust Speed Precip Events Conditions
12:53 AM 64.0 °F 57.0 °F 78% 30.17 in 10.0 mi NE 12.7 mph - N/A   Overcast
1:53 AM 64.0 °F 57.0 °F 78% 30.16 in 10.0 mi ENE 8.1 mph - N/A   Overcast
2:22 AM 62.6 °F 55.4 °F 77% 30.18 in 10.0 mi NE 9.2 mph - N/A   Overcast
2:53 AM 63.0 °F 55.9 °F 78% 30.15 in 10.0 mi ENE 10.4 mph - N/A   Overcast
3:53 AM 62.1 °F 55.9 °F 80% 30.14 in 10.0 mi ENE 9.2 mph - N/A   Overcast
4:14 AM 62.6 °F 55.4 °F 77% 30.16 in 8.0 mi NE 8.1 mph - N/A   Overcast
4:53 AM 61.0 °F 55.9 °F 83% 30.14 in 7.0 mi ENE 6.9 mph - N/A   Overcast
5:31 AM 60.8 °F 57.2 °F 88% 30.16 in 5.0 mi NE 6.9 mph - N/A   Overcast
5:53 AM 60.1 °F 57.9 °F 93% 30.15 in 2.0 mi NE 5.8 mph - N/A   Overcast
6:24 AM 59.0 °F 57.2 °F 94% 30.16 in 2.5 mi ENE 3.5 mph - N/A   Overcast
6:53 AM 59.0 °F 57.9 °F 96% 30.15 in 2.5 mi NE 3.5 mph - 0.01 in   Overcast
7:53 AM 59.0 °F 57.9 °F 96% 30.17 in 2.0 mi Calm Calm - N/A   Overcast
8:53 AM 60.1 °F 57.9 °F 93% 30.18 in 2.5 mi ENE 3.5 mph - 0.02 in Rain Light Rain
9:06 AM 60.8 °F 57.2 °F 88% 30.20 in 2.5 mi ENE 3.5 mph - 0.02 in Rain Light Rain
9:53 AM 60.1 °F 57.9 °F 93% 30.19 in 2.0 mi Calm Calm - 0.04 in Rain Light Rain
10:53 AM 61.0 °F 57.9 °F 90% 30.18 in 2.0 mi Calm Calm - 0.02 in   Overcast
11:00 AM 60.8 °F 59.0 °F 94% 30.19 in 7.0 mi Calm Calm - 0.00 in Rain Light Rain
11:53 AM 62.1 °F 59.0 °F 90% 30.18 in 2.0 mi Variable 3.5 mph - 0.00 in   Overcast
12:53 PM 64.0 °F 60.1 °F 87% 30.15 in 2.0 mi Calm Calm - N/A   Overcast
1:22 PM 66.2 °F 60.8 °F 83% 30.15 in 2.0 mi Calm Calm - N/A   Haze
1:45 PM 69.8 °F 60.8 °F 73% 30.14 in 2.0 mi Calm Calm - N/A   Haze
1:53 PM 69.1 °F 61.0 °F 75% 30.12 in 5.0 mi West 3.5 mph - N/A   Haze
2:53 PM 71.1 °F 61.0 °F 70% 30.09 in 5.0 mi Calm Calm - N/A   Haze
3:53 PM 73.9 °F 62.1 °F 66% 30.06 in 10.0 mi Variable 4.6 mph - N/A   Overcast
4:53 PM 78.1 °F 57.0 °F 48% 30.03 in 10.0 mi South 12.7 mph - N/A   Overcast
5:53 PM 75.9 °F 54.0 °F 46% 30.03 in 10.0 mi SSE 15.0 mph 25.3 mph N/A   Mostly Cloudy
6:53 PM 75.0 °F 53.1 °F 46% 30.01 in 10.0 mi South 12.7 mph 20.7 mph N/A   Partly Cloudy
7:53 PM 72.0 °F 53.1 °F 51% 30.01 in 10.0 mi South 10.4 mph - N/A   Clear
10:53 PM 68.0 °F 55.9 °F 65% 29.99 in 10.0 mi South 6.9 mph - N/A   Mostly Cloudy
11:53 PM 68.0 °F 55.9 °F 65% 29.98 in 10.0 mi South 12.7 mph - N/A   Mostly Cloudy